Weather History for Thedford, NE

Change the Weather History Date:

Thursday, November 3, 2011

  Actual Average (KLBF) Record (KLBF)
Temperature  
Mean Temperature 34 °F 42 °F  
Max Temperature 48 °F 57 °F 81 °F (1915)
Min Temperature 19 °F 27 °F -6 °F (1991)
Degree Days  
Heating Degree Days 32 23  
Month to date heating degree days 68  
Since 1 July heating degree days 737  
Cooling Degree Days 0 0  
Month to date cooling degree days 0  
Year to date cooling degree days 768  
Moisture  
Dew Point 18 °F    
Average Humidity 60    
Maximum Humidity 93    
Minimum Humidity 29    
Precipitation  
Precipitation 0.00 in 0.03 in 0.57 in (1947)
Month to date precipitation 0.09  
Year to date precipitation 19.27  
Snow  
Snow 0.00 in 0.20 in 4.60 in (1990)
Month to date snowfall 0.4  
Since 1 July snowfall 2.7  
Since 1 September snowfall 2.7  
Snow Depth -    
Sea Level Pressure  
Sea Level Pressure 30.24 in    
Wind  
Wind Speed 7 mph (SSW)    
Max Wind Speed 17 mph    
Max Gust Speed 21 mph    
Visibility 10 miles    
Events      
T = Trace of Precipitation, MM = Missing Value Source: NWS Daily Summary

Daily Weather History Graph

Daily Weather History Graph

Search for Another Location

Airport:

Trip Planner

Search our weather history database for the weather conditions in past years. The results will help you decide how hot, cold, wet, or windy it might be!

Date:

Astronomy

Nov. 03, 2011 Rise Set
Actual Time 8:17 AM CDT 6:34 PM CDT
Civil Twilight 7:47 AM CDT 7:03 PM CDT
Nautical Twilight 7:14 AM CDT 7:36 PM CDT
Astronomical Twilight 6:42 AM CDT 8:08 PM CDT
Moon 3:04 PM CDT (11/3) 1:24 AM CDT (11/3)
Length of Visible Light 11h 15m
Length of Day
10h 17m
First Quarter, 60% of the Moon is Illuminated
Nov 3
First Quarter
Nov 10
Full
Nov 18
Last Quarter
Nov 25
New
Dec 2
First Quarter

Hourly Weather History & Observations

Time (CDT) Temp. Windchill Dew Point Humidity Pressure Visibility Wind Dir Wind Speed Gust Speed Precip Events Conditions
12:15 AM 26.6 °F 17.5 °F 21.2 °F 80% 30.37 in 10.0 mi West 9.2 mph - N/A   Clear
12:35 AM 24.8 °F 16.9 °F 21.2 °F 86% 30.37 in 10.0 mi WNW 6.9 mph - N/A   Clear
12:55 AM 24.8 °F 16.9 °F 21.2 °F 86% 30.37 in 10.0 mi WNW 6.9 mph - N/A   Clear
1:15 AM 23.0 °F 17.0 °F 19.4 °F 86% 30.36 in 10.0 mi WNW 4.6 mph - N/A   Clear
1:55 AM 21.2 °F 13.6 °F 17.6 °F 86% 30.35 in 10.0 mi West 5.8 mph - N/A   Clear
2:15 AM 21.2 °F 13.6 °F 17.6 °F 86% 30.35 in 10.0 mi West 5.8 mph - N/A   Clear
2:35 AM 21.2 °F 14.9 °F 17.6 °F 86% 30.35 in 10.0 mi West 4.6 mph - N/A   Clear
2:55 AM 21.2 °F 14.9 °F 17.6 °F 86% 30.34 in 10.0 mi West 4.6 mph - N/A   Clear
3:15 AM 21.2 °F 16.4 °F 17.6 °F 86% 30.34 in 10.0 mi West 3.5 mph - N/A   Clear
3:35 AM 19.4 °F 12.8 °F 17.6 °F 93% 30.34 in 10.0 mi West 4.6 mph - N/A   Clear
4:55 AM 19.4 °F 12.8 °F 15.8 °F 86% 30.34 in 10.0 mi West 4.6 mph - N/A   Clear
5:15 AM 19.4 °F 12.8 °F 15.8 °F 86% 30.34 in 10.0 mi West 4.6 mph - N/A   Clear
5:35 AM 19.4 °F 12.8 °F 15.8 °F 86% 30.33 in 10.0 mi WSW 4.6 mph - N/A   Clear
5:55 AM 19.4 °F - 15.8 °F 86% 30.33 in 10.0 mi Calm Calm - N/A   Clear
6:15 AM 19.4 °F 14.3 °F 14.0 °F 80% 30.33 in 10.0 mi West 3.5 mph - N/A   Clear
6:55 AM 19.4 °F 9.5 °F 15.8 °F 86% 30.31 in 10.0 mi SW 8.1 mph - N/A   Clear
7:15 AM 19.4 °F - 14.0 °F 80% 30.31 in 10.0 mi Calm Calm - N/A   Clear
7:35 AM 19.4 °F - 14.0 °F 80% 30.31 in 10.0 mi Calm Calm - N/A   Clear
7:55 AM 19.4 °F 11.5 °F 14.0 °F 80% 30.31 in 10.0 mi WSW 5.8 mph - N/A   Clear
8:15 AM 19.4 °F - 14.0 °F 80% 30.30 in 10.0 mi Calm Calm - N/A   Clear
8:35 AM 19.4 °F - 14.0 °F 80% 30.30 in 10.0 mi Calm Calm - N/A   Clear
8:55 AM 19.4 °F - 15.8 °F 86% 30.31 in 10.0 mi Calm Calm - N/A   Clear
9:15 AM 23.0 °F 18.4 °F 17.6 °F 80% 30.31 in 10.0 mi WSW 3.5 mph - N/A   Clear
9:35 AM 26.6 °F 22.6 °F 19.4 °F 74% 30.31 in 10.0 mi SW 3.5 mph - N/A   Clear
9:55 AM 28.4 °F - 21.2 °F 74% 30.31 in 10.0 mi Calm Calm - N/A   Clear
10:15 AM 30.2 °F 26.7 °F 23.0 °F 75% 30.31 in 10.0 mi South 3.5 mph - N/A   Clear
10:35 AM 32.0 °F 26.4 °F 23.0 °F 69% 30.29 in 10.0 mi South 5.8 mph - N/A   Clear
10:55 AM 33.8 °F 26.4 °F 23.0 °F 65% 30.28 in 10.0 mi South 9.2 mph - N/A   Clear
11:15 AM 37.4 °F 29.8 °F 23.0 °F 56% 30.28 in 10.0 mi South 11.5 mph - N/A   Clear
11:35 AM 37.4 °F 29.8 °F 21.2 °F 52% 30.27 in 10.0 mi South 11.5 mph - N/A   Clear
11:55 AM 41.0 °F 34.7 °F 19.4 °F 42% 30.27 in 10.0 mi South 10.4 mph - N/A   Clear
12:35 PM 42.8 °F 36.6 °F 17.6 °F 36% 30.26 in 10.0 mi SSW 11.5 mph - N/A   Clear
1:15 PM 44.6 °F 38.1 °F 15.8 °F 31% 30.23 in 10.0 mi SSW 13.8 mph - N/A   Clear
1:35 PM 44.6 °F 37.4 °F 15.8 °F 31% 30.23 in 10.0 mi SSW 16.1 mph 19.6 mph N/A   Clear
1:55 PM 44.6 °F 38.1 °F 15.8 °F 31% 30.22 in 10.0 mi SSW 13.8 mph 19.6 mph N/A   Clear
2:15 PM 46.4 °F 39.8 °F 17.6 °F 32% 30.22 in 10.0 mi SSW 16.1 mph - N/A   Clear
2:35 PM 46.4 °F 40.7 °F 19.4 °F 34% 30.21 in 10.0 mi SSW 12.7 mph 17.3 mph N/A   Clear
2:55 PM 46.4 °F 40.7 °F 17.6 °F 32% 30.20 in 10.0 mi South 12.7 mph - N/A   Clear
3:15 PM 46.4 °F 39.5 °F 15.8 °F 29% 30.19 in 10.0 mi SSW 17.3 mph 20.7 mph N/A   Clear
3:35 PM 46.4 °F 39.8 °F 17.6 °F 32% 30.19 in 10.0 mi SSW 16.1 mph - N/A   Clear
4:15 PM 46.4 °F 40.1 °F 21.2 °F 37% 30.17 in 10.0 mi South 15.0 mph 18.4 mph N/A   Clear
4:35 PM 46.4 °F 40.4 °F 21.2 °F 37% 30.17 in 10.0 mi South 13.8 mph 19.6 mph N/A   Clear
4:55 PM 48.2 °F - 19.4 °F 32% 30.17 in 10.0 mi SSW 13.8 mph - N/A   Clear
5:15 PM 48.2 °F - 19.4 °F 32% 30.16 in 10.0 mi SSW 12.7 mph - N/A   Clear
5:35 PM 46.4 °F 40.7 °F 17.6 °F 32% 30.15 in 10.0 mi South 12.7 mph - N/A   Clear
5:55 PM 46.4 °F 42.4 °F 19.4 °F 34% 30.14 in 10.0 mi South 8.1 mph - N/A   Clear
6:15 PM 44.6 °F 40.2 °F 19.4 °F 37% 30.14 in 10.0 mi South 8.1 mph - N/A   Clear
6:35 PM 42.8 °F 38.0 °F 17.6 °F 36% 30.14 in 10.0 mi SSE 8.1 mph - N/A   Clear
6:55 PM 39.2 °F 33.0 °F 19.4 °F 45% 30.14 in 10.0 mi SSE 9.2 mph - N/A   Clear
7:15 PM 37.4 °F 30.8 °F 17.6 °F 45% 30.12 in 10.0 mi SSE 9.2 mph - N/A   Clear
7:35 PM 37.4 °F 30.8 °F 17.6 °F 45% 30.11 in 10.0 mi SSE 9.2 mph - N/A   Clear
7:55 PM 37.4 °F 31.4 °F 17.6 °F 45% 30.11 in 10.0 mi SSE 8.1 mph - N/A   Clear
8:15 PM 35.6 °F 28.0 °F 19.4 °F 52% 30.11 in 10.0 mi SSE 10.4 mph - N/A   Clear
8:35 PM 35.6 °F 28.0 °F 19.4 °F 52% 30.10 in 10.0 mi SSE 10.4 mph - N/A   Clear
8:55 PM 35.6 °F 29.2 °F 19.4 °F 52% 30.11 in 10.0 mi South 8.1 mph - N/A   Clear
9:15 PM 33.8 °F 26.4 °F 19.4 °F 56% 30.11 in 10.0 mi SSE 9.2 mph - N/A   Clear
9:35 PM 33.8 °F 27.0 °F 19.4 °F 56% 30.11 in 10.0 mi SSE 8.1 mph - N/A   Clear
9:55 PM 33.8 °F 27.0 °F 19.4 °F 56% 30.10 in 10.0 mi SSE 8.1 mph - N/A   Clear
10:15 PM 35.6 °F 27.1 °F 21.2 °F 56% 30.10 in 10.0 mi South 12.7 mph 17.3 mph N/A   Clear
10:35 PM 33.8 °F 25.8 °F 21.2 °F 60% 30.10 in 10.0 mi South 10.4 mph - N/A   Clear
10:55 PM 33.8 °F 25.8 °F 19.4 °F 56% 30.10 in 10.0 mi South 10.4 mph - N/A   Clear
11:15 PM 33.8 °F 25.8 °F 19.4 °F 56% 30.11 in 10.0 mi South 10.4 mph - N/A   Clear